| time (UTC) | temp F | wind direction | speed MPH | gust MPH | rain 1hr in | rain 24hr in | rain mn in | humidity % | barometer mb |
| 20260508223033 | 67 | 282 | 0.0 | 1.0 | 0.00 | 0.00 | 0.00 | 64 | 1016.6 |
| 20260508221529 | 67 | 282 | 0.0 | 1.0 | 0.00 | 0.00 | 0.00 | 64 | 1016.4 |
| 20260508214524 | 67 | 282 | 0.0 | 2.0 | 0.00 | 0.00 | 0.00 | 61 | 1016.6 |
| 20260508213022 | 67 | 283 | 0.0 | 4.0 | 0.00 | 0.00 | 0.00 | 59 | 1016.5 |
| 20260508211524 | 67 | 285 | 1.0 | 3.0 | 0.00 | 0.00 | 0.00 | 59 | 1016.6 |
| 20260508210019 | 67 | 285 | 0.0 | 1.0 | 0.00 | 0.00 | 0.00 | 58 | 1016.5 |
| 20260508204521 | 67 | 285 | 0.0 | 2.0 | 0.00 | 0.00 | 0.00 | 56 | 1016.7 |
| 20260508203017 | 68 | 288 | 0.0 | 2.0 | 0.00 | 0.00 | 0.00 | 54 | 1016.8 |
| 20260508201525 | 68 | 281 | 1.0 | 3.0 | 0.00 | 0.00 | 0.00 | 52 | 1016.7 |
| 20260508200016 | 68 | 274 | 0.0 | 1.0 | 0.00 | 0.00 | 0.00 | 50 | 1016.0 |
| 20260508194516 | 68 | 274 | 0.0 | 2.0 | 0.00 | 0.00 | 0.00 | 50 | 1016.0 |
| 20260508193015 | 68 | 274 | 0.0 | 3.0 | 0.00 | 0.00 | 0.00 | 50 | 1016.2 |
| 20260508191518 | 68 | 274 | 0.0 | 2.0 | 0.00 | 0.00 | 0.00 | 51 | 1015.8 |
| 20260508190014 | 68 | 274 | 0.0 | 1.0 | 0.00 | 0.00 | 0.00 | 59 | 1015.8 |
| 20260508184519 | 68 | 274 | 0.0 | 1.0 | 0.00 | 0.00 | 0.00 | 60 | 1015.7 |
| 20260508183013 | 68 | 274 | 0.0 | 1.0 | 0.00 | 0.00 | 0.00 | 58 | 1015.4 |
| 20260508181511 | 68 | 274 | 1.0 | 4.0 | 0.00 | 0.00 | 0.00 | 58 | 1015.6 |
| 20260508180012 | 69 | 254 | 0.0 | 2.0 | 0.00 | 0.00 | 0.00 | 56 | 1014.8 |
| 20260508174524 | 70 | 245 | 0.0 | 1.0 | 0.00 | 0.00 | 0.00 | 50 | 1014.7 |
| 20260508173010 | 70 | 245 | 0.0 | 2.0 | 0.00 | 0.00 | 0.00 | 49 | 1014.3 |
| 20260508171510 | 71 | 245 | 0.0 | 5.0 | 0.00 | 0.00 | 0.00 | 48 | 1014.3 |
| 20260508170009 | 71 | 264 | 1.0 | 7.0 | 0.00 | 0.00 | 0.00 | 48 | 1014.6 |
| 20260508164509 | 71 | 246 | 0.0 | 4.0 | 0.00 | 0.00 | 0.00 | 47 | 1014.3 |
| 20260508163012 | 72 | 249 | 1.0 | 7.0 | 0.00 | 0.00 | 0.00 | 46 | 1014.1 |
| 20260508161507 | 72 | 271 | 1.0 | 6.0 | 0.00 | 0.00 | 0.00 | 45 | 1014.1 |
| 20260508160007 | 73 | 181 | 1.0 | 4.0 | 0.00 | 0.00 | 0.00 | 45 | 1014.1 |
| 20260508154506 | 74 | 237 | 1.0 | 5.0 | 0.00 | 0.00 | 0.00 | 44 | 1014.2 |
| 20260508153006 | 74 | 260 | 0.0 | 6.0 | 0.00 | 0.00 | 0.00 | 44 | 1014.3 |
| 20260508151505 | 74 | 243 | 1.0 | 6.0 | 0.00 | 0.00 | 0.00 | 43 | 1014.0 |
| 20260508150006 | 75 | 136 | 1.0 | 8.0 | 0.00 | 0.00 | 0.00 | 42 | 1013.9 |
| 20260508144504 | 76 | 139 | 2.0 | 7.0 | 0.00 | 0.00 | 0.00 | 43 | 1013.9 |
| 20260508143006 | 76 | 261 | 2.0 | 15.0 | 0.00 | 0.00 | 0.00 | 44 | 1013.9 |
| 20260508141502 | 77 | 227 | 0.0 | 9.0 | 0.00 | 0.00 | 0.00 | 45 | 1014.0 |
| 20260508140003 | 77 | 149 | 1.0 | 10.0 | 0.00 | 0.00 | 0.00 | 43 | 1014.1 |
| 20260508134616 | 77 | 149 | 2.0 | 9.0 | 0.00 | 0.00 | 0.00 | 40 | 1014.5 |
| 20260508133057 | 77 | 227 | 2.0 | 8.0 | 0.00 | 0.00 | 0.00 | 42 | 1014.7 |
| 20260508131555 | 77 | 254 | 3.0 | 9.0 | 0.00 | 0.00 | 0.00 | 42 | 1014.8 |
| 20260508130051 | 76 | 156 | 1.0 | 10.0 | 0.00 | 0.00 | 0.00 | 42 | 1015.0 |
| 20260508124549 | 76 | 196 | 0.0 | 9.0 | 0.00 | 0.00 | 0.00 | 41 | 1015.2 |
| 20260508123103 | 75 | 156 | 1.0 | 7.0 | 0.00 | 0.00 | 0.00 | 40 | 1015.5 |
| 20260508121545 | 75 | 255 | 1.0 | 6.0 | 0.00 | 0.00 | 0.00 | 42 | 1016.1 |
| 20260508120043 | 74 | 136 | 2.0 | 5.0 | 0.00 | 0.00 | 0.00 | 45 | 1016.0 |
| 20260508114547 | 73 | 208 | 0.0 | 7.0 | 0.00 | 0.00 | 0.00 | 45 | 1016.0 |
| 20260508113135 | 73 | 212 | 0.0 | 3.0 | 0.00 | 0.00 | 0.00 | 46 | 1015.7 |
| 20260508111534 | 72 | 287 | 0.0 | 2.0 | 0.00 | 0.00 | 0.00 | 49 | 1016.4 |
| 20260508110031 | 72 | 287 | 1.0 | 3.0 | 0.00 | 0.00 | 0.00 | 49 | 1016.7 |
| 20260508104531 | 72 | 294 | 1.0 | 4.0 | 0.00 | 0.00 | 0.00 | 50 | 1017.0 |
| 20260508103036 | 72 | 242 | 0.0 | 5.0 | 0.00 | 0.00 | 0.00 | 48 | 1017.2 |
| 20260508101529 | 71 | 140 | 0.0 | 7.0 | 0.00 | 0.00 | 0.00 | 49 | 1017.0 |
| 20260508100028 | 71 | 266 | 0.0 | 4.0 | 0.00 | 0.00 | 0.00 | 51 | 1017.3 |
| 20260508094529 | 72 | 221 | 2.0 | 5.0 | 0.00 | 0.00 | 0.00 | 49 | 1017.8 |
| 20260508093033 | 72 | 268 | 1.0 | 7.0 | 0.00 | 0.00 | 0.00 | 48 | 1017.8 |
| 20260508091533 | 71 | 230 | 2.0 | 7.0 | 0.00 | 0.00 | 0.00 | 48 | 1017.9 |
| 20260508090026 | 71 | 258 | 2.0 | 8.0 | 0.00 | 0.00 | 0.00 | 50 | 1018.1 |
| 20260508084521 | 70 | 231 | 2.0 | 6.0 | 0.00 | 0.00 | 0.00 | 49 | 1017.9 |
| 20260508083019 | 70 | 270 | 0.0 | 2.0 | 0.00 | 0.00 | 0.00 | 50 | 1018.1 |
| 20260508081548 | 70 | 238 | 0.0 | 2.0 | 0.00 | 0.00 | 0.00 | 49 | 1018.0 |
| 20260508080018 | 70 | 239 | 0.0 | 3.0 | 0.00 | 0.00 | 0.00 | 48 | 1018.3 |
| 20260508074516 | 69 | 257 | 0.0 | 4.0 | 0.00 | 0.00 | 0.00 | 47 | 1018.3 |
| 20260508073016 | 68 | 234 | 0.0 | 3.0 | 0.00 | 0.00 | 0.00 | 47 | 1018.4 |
| 20260508071516 | 68 | 234 | 0.0 | 5.0 | 0.00 | 0.00 | 0.00 | 46 | 1018.6 |
| 20260508070006 | 68 | 194 | 0.0 | 5.0 | 0.00 | 0.00 | 0.00 | 45 | 1019.0 |
| 20260508064505 | 67 | 241 | 0.0 | 4.0 | 0.00 | 0.00 | 0.00 | 45 | 1018.8 |
| 20260508063113 | 67 | 252 | 0.0 | 7.0 | 0.00 | 0.00 | 0.00 | 45 | 1018.6 |
| 20260508061558 | 67 | 244 | 0.0 | 9.0 | 0.00 | 0.00 | 0.00 | 44 | 1018.4 |
| 20260508060057 | 67 | 246 | 2.0 | 5.0 | 0.00 | 0.00 | 0.00 | 45 | 1017.9 |
| 20260508054552 | 66 | 254 | 1.0 | 4.0 | 0.00 | 0.00 | 0.00 | 50 | 1017.3 |
| 20260508053051 | 65 | 46 | 0.0 | 2.0 | 0.00 | 0.00 | 0.00 | 61 | 1017.0 |
| 20260508051552 | 64 | 46 | 0.0 | 2.0 | 0.00 | 0.00 | 0.00 | 66 | 1016.7 |
| 20260508050048 | 64 | 46 | 0.0 | 0.0 | 0.00 | 0.00 | 0.00 | 68 | 1016.7 |
| 20260508044543 | 63 | 46 | 0.0 | 0.0 | 0.00 | 0.00 | 0.00 | 68 | 1016.8 |
| 20260508043040 | 63 | 46 | 0.0 | 0.0 | 0.00 | 0.00 | 0.00 | 68 | 1016.4 |
| 20260508041538 | 63 | 46 | 0.0 | 1.0 | 0.00 | 0.00 | 0.00 | 68 | 1016.1 |
| 20260508040045 | 63 | 46 | 0.0 | 0.0 | 0.00 | 0.00 | 0.00 | 68 | 1015.9 |
| 20260508034535 | 63 | 46 | 0.0 | 0.0 | 0.00 | 0.00 | 0.00 | 67 | 1015.7 |
| 20260508033034 | 63 | 46 | 0.0 | 0.0 | 0.00 | 0.00 | 0.00 | 68 | 1015.6 |
| 20260508031536 | 63 | 46 | 0.0 | 1.0 | 0.00 | 0.00 | 0.00 | 67 | 1015.7 |
| 20260508030033 | 63 | 46 | 0.0 | 1.0 | 0.00 | 0.00 | 0.00 | 67 | 1015.5 |
| 20260508024545 | 64 | 46 | 0.0 | 1.0 | 0.00 | 0.00 | 0.00 | 69 | 1015.7 |
| 20260508023032 | 64 | 46 | 0.0 | 0.0 | 0.00 | 0.00 | 0.00 | 68 | 1015.9 |
| 20260508021530 | 64 | 46 | 0.0 | 1.0 | 0.00 | 0.00 | 0.00 | 68 | 1015.7 |
| 20260508020029 | 64 | 46 | 0.0 | 1.0 | 0.00 | 0.00 | 0.00 | 68 | 1015.9 |
| 20260508014529 | 64 | 46 | 0.0 | 0.0 | 0.00 | 0.00 | 0.00 | 69 | 1015.9 |
| 20260508013024 | 64 | 46 | 0.0 | 1.0 | 0.00 | 0.00 | 0.00 | 68 | 1016.1 |
| 20260508011523 | 65 | 46 | 0.0 | 0.0 | 0.00 | 0.00 | 0.00 | 67 | 1016.3 |
| 20260508010031 | 65 | 46 | 0.0 | 0.0 | 0.00 | 0.00 | 0.00 | 67 | 1016.4 |
| 20260508004520 | 65 | 46 | 0.0 | 1.0 | 0.00 | 0.00 | 0.00 | 66 | 1016.6 |
| 20260508003019 | 65 | 46 | 0.0 | 0.0 | 0.00 | 0.00 | 0.00 | 65 | 1016.4 |
| 20260508001518 | 65 | 46 | 0.0 | 1.0 | 0.00 | 0.00 | 0.00 | 64 | 1016.6 |
| 20260508000015 | 65 | 46 | 0.0 | 1.0 | 0.00 | 0.00 | 0.00 | 62 | 1016.6 |
| 20260507234518 | 65 | 46 | 0.0 | 1.0 | 0.00 | 0.00 | 0.00 | 62 | 1016.8 |
| 20260507233032 | 65 | 46 | 0.0 | 0.0 | 0.00 | 0.00 | 0.00 | 61 | 1017.2 |
| 20260507231511 | 65 | 46 | 0.0 | 0.0 | 0.00 | 0.00 | 0.00 | 59 | 1017.1 |
| 20260507230009 | 66 | 46 | 0.0 | 0.0 | 0.00 | 0.00 | 0.00 | 58 | 1017.2 |
| 20260507224508 | 66 | 46 | 0.0 | 1.0 | 0.00 | 0.00 | 0.00 | 57 | 1017.4 |